Regional Weather Roundup
Issued by NWS

Home | Current Version | Previous Version | Text Only | Print | Product List | Glossary On
Versions: 1 2 3 4 5 6 7 8 9 10 11 12 13 14 15 16 17 18 19 20 21 22 23 24 25 26 27 28 29 30 31 32 33 34 35 36 37 38 39 40 41 42 43 44 45 46 47 48 49 50
000
ASUS43 KLSX 010407
RWRMO

WEATHER SUMMARY FOR MISSOURI
NATIONAL WEATHER SERVICE SPRINGFIELD MO
1100 PM CDT TUE SEP 30 2014

NOTE: "FAIR" INDICATES FEW OR NO CLOUDS BELOW 12,000 FEET WITH NO
       SIGNIFICANT WEATHER AND/OR OBSTRUCTIONS TO VISIBILITY.
       CURRENT SKY AND/OR WEATHER CONDITIONS ARE NOT AVAILABLE FOR
       CHILLICOTHE AND FARMINGTON.

MOZ001>031-035>038-043-044-053-054-010500-
...NORTHERN AND WESTERN MISSOURI...

CITY           SKY/WX    TMP DP  RH WIND       PRES   REMARKS
KANSAS CTY INT MOCLDY    72  59  63 S9        29.79R
KANSAS C DTWN  MOCLDY    75  58  55 SE9       29.78S
LEE`S SUMMIT   CLEAR     72  59  63 SE10      29.80F
ST JOSEPH      CLOUDY    72  59  63 SE9       29.77F
CHILLICOTHE      N/A     71  63  75 SE7       29.83F
KIRKSVILLE     PTCLDY    64  32  30 E8        29.88S

$$
MOZ066>068-077>081-088>096-101>105-010500-
...SOUTHWEST MISSOURI...

CITY           SKY/WX    TMP DP  RH WIND       PRES   REMARKS
SPRINGFIELD    CLEAR     67  55  65 SE9       29.87S
JOPLIN         CLEAR     70  59  68 S10       29.84R

$$
MOZ032>034-039>042-045>050-055>058-069>072-010500-
...CENTRAL MISSOURI...

CITY           SKY/WX    TMP DP  RH WIND       PRES   REMARKS
COLUMBIA       CLEAR     69  58  67 SE9       29.86F
JEFFERSON CITY CLEAR     65  59  81 SE6       29.86S
ROLLA          CLEAR     65  53  65 S7        29.89S
SEDALIA        CLEAR     66  58  75 S7        29.84F
WHITEMAN AFB   CLEAR     70  59  68 S9        29.82F
OSAGE BEACH    CLEAR     66  55  68 SE5       29.87F

$$
MOZ051-052-059>065-010500-
...EAST CENTRAL MISSOURI...

CITY           SKY/WX    TMP DP  RH WIND       PRES   REMARKS
ST LOUIS INTL  CLEAR     69  59  70 SE6       29.91R
SPIRIT OF STL  CLEAR    N/A N/A N/A CALM      29.89R
ST CHARLES     CLEAR     66  59  78 E6        29.90R

$$
MOZ072>076-082>087-097>100-106>115-010500-
...SOUTH CENTRAL AND SOUTHEAST MISSOURI...

CITY           SKY/WX    TMP DP  RH WIND       PRES   REMARKS
CAPE GIRARDEAU CLEAR     61  57  87 E5        29.90S
FARMINGTON     CLEAR     61  55  82 CALM      29.93S
POPLAR BLUFF   PTCLDY    62  57  83 N3        29.89R
WEST PLAINS    CLEAR     59  54  83 CALM      29.92S

$$


USA.gov is the U.S. government's official web portal to all federal, state and local government web resources and services.